This is the latest recevied weather packets stored in our database for station/object DC9VQ-13. If no packets are shown the sender has not sent any weather packets the latest 10 day(s).
| Time | Temp. | Humidity | Pressure | Rain* | Wind** | Luminosity | Snow |
|---|---|---|---|---|---|---|---|
| 1787931753 | 26.11° C | 65% | 1010.5 hPa | 0 mm | - | - | - |
| 1787931151 | 26.67° C | 66% | 1010.6 hPa | 0 mm | - | - | - |
| 1787930549 | 27.22° C | 64% | 1010.5 hPa | 0 mm | - | - | - |
| 1787929947 | 27.22° C | 64% | 1010.8 hPa | 0 mm | - | - | - |
| 1787928743 | 27.22° C | 65% | 1010.4 hPa | 0 mm | - | - | - |
| 1787928141 | 26.67° C | 65% | 1010.4 hPa | 0 mm | - | - | - |
| 1787927539 | 26.67° C | 68% | 1010.4 hPa | 0 mm | - | - | - |
| 1787926937 | 26.11° C | 69% | 1010.4 hPa | 0 mm | - | - | - |
| 1787926336 | 26.11° C | 70% | 1010.6 hPa | 0 mm | - | - | - |
| 1787925732 | 25.56° C | 70% | 1010.7 hPa | 0 mm | - | - | - |
| 1787925133 | 25.56° C | 70% | 1010.7 hPa | 0 mm | - | - | - |
| 1787924529 | 25.56° C | 70% | 1010.7 hPa | 0 mm | - | - | - |
| 1787923927 | 25.56° C | 71% | 1010.7 hPa | 0 mm | - | - | - |
| 1787923325 | 25° C | 72% | 1010.9 hPa | 0 mm | - | - | - |
| 1787922723 | 25° C | 72% | 1010.9 hPa | 0 mm | - | - | - |
| 1787922120 | 25° C | 76% | 1011.1 hPa | 0 mm | - | - | - |
| 1787921519 | 25° C | 76% | 1010.9 hPa | 0 mm | - | - | - |
| 1787920917 | 25° C | 77% | 1011 hPa | 0 mm | - | - | - |
| 1787920315 | 25° C | 78% | 1011.1 hPa | 0 mm | - | - | - |
| 1787919713 | 24.44° C | 79% | 1010.9 hPa | 0 mm | - | - | - |
| 1787919111 | 24.44° C | 79% | 1011.1 hPa | 0 mm | - | - | - |
| 1787918509 | 24.44° C | 79% | 1011 hPa | 0 mm | - | - | - |
| 1787917906 | 24.44° C | 80% | 1010.8 hPa | 0 mm | - | - | - |
| 1787917305 | 23.89° C | 82% | 1010.8 hPa | 0 mm | - | - | - |
| 1787916703 | 23.89° C | 84% | 1011 hPa | 0 mm | - | - | - |
* Rain latest hour (hover to see other rain measurements)
** Current wind speed in m/s (hover to see current wind gust speed)